Location: Fort Worth, Tx
(32.7431°N, 97.3695°W)
Time: 01:48:13
(UTC-04:00)

Vanguard 2 - Pass Details

Date: 24 February 2024
Orbit: 552 x 2916 km, 32.9° (Epoch: 24 April)

Event Time Altitude Azimuth Distance (km) Brightness Sun altitude
Exits shadow 05:11:41 20° 193° (SSW) 4,298 11.0 -36.7°
Drops below altitude 10° 05:16:24 10° 174° (S) 4,785 11.5 -35.8°
Sets 05:20:32 0° 162° (SSE) 5,445 11.9 -34.9°
